FLTSATCOM 8 (USA 46)

Last updated on Sun Jun 21 2026 00:03:03 GMT+0000 (Coordinated Universal Time)

1 20253U 89077A 26171.45223306 -.00000377 00000+0 00000+0 0 9991 2 20253 12.4207 351.1441 0004220 57.5068 148.5574 1.00275807260594
UTC large
Height (km)
Speed (km/s)
/
Latitude / Longitude
Inclination (degrees)
Orbital Period (minutes)
Azimuth
Elevation
Range (km)
Doppler Factor

Next 0 passes for location: London (51.5072 / 0.1276)

No passes found over London.
FLTSATCOM 8 (USA 46)